COSMOS 2463 [+] (36519 NORAD) Tracking and Keplerian Element Data

This shows tracking and keplerian element data for the satellite.

Feedback or suggestion? Click here.




ElementValue
Catalog36519
NameCOSMOS 2463 [+]
Epoch Orbit43185
Epoch Day345.89709281
Epoch Year2018
RAAN105.5591
Inclination82.9602
Eccentricity0.003619
Argument of Perigee181.2572
Mean Anonmoly178.8499
Mean Motion13.7143105
Decay Rate7.3E-07
L11 36519U 10017A 18345.89709281 .00000073 00000-0 63774-4 0 9999
L22 36519 82.9602 105.5591 0036190 181.2572 178.8499 13.71431050431856

Live tracking and technical data element details for COSMOS 2463 [+] (NORAD 36519). COSMOS 2463 [+] can be tracked NOW for your location showing map with azimuth and elevation plus other details from your city location.

Track the satellite on the map from your city or location and see movement details for azimuth, elevation, latitude, longitude, range, height, and movement on the map or in text.







IsCatalogInMostPopularTable: catalog: 36519, numindb: 61
Update: records affected: 1



GetName: 36519 COSMOS 2463 [+]

Hit Count: updated at: Thu, 13 Dec 2018 05:12:48 GMT